Location: Dennis Manor
(64.8292°N, 147.5397°W)
Time: 08:30:22
(UTC+00:00)

Envisat - Pass Details

Date: 02 November 2020
Orbit: 764 x 766 km, 98.1° (Epoch: 05 December)

Event Time Altitude Azimuth Distance (km) Brightness Sun altitude
Rises 04:37:11 0° 222° (SW) 3,233 6.7 -20.2°
Reaches altitude 10° 04:40:25 10° 244° (WSW) 2,311 6.3 -20.5°
Maximum altitude 04:43:30 16° 282° (WNW) 1,934 6.1 -20.8°
Drops below altitude 10° 04:46:36 10° 319° (NW) 2,319 6.2 -21.2°
Sets 04:49:52 0° 341° (NNW) 3,251 6.7 -21.5°
